Location: Hollin Hills
(38.7573°N, 77.0661°W)
Time: 12:17:24
(UTC+00:00)

ISS - Pass Details

Date: 19 April 2026
Orbit: 414 x 424 km, 51.6° (Epoch: 11 May)

Event Time Altitude Azimuth Distance (km) Brightness Sun altitude
Exits shadow 08:52:03 36° 180° (S) 679 -3.0 -17.7°
Maximum altitude 08:52:54 46° 136° (SE) 574 -3.1 -17.6°
Drops below altitude 10° 08:56:09 10° 62° (ENE) 1,502 0.4 -17.0°
Sets 08:58:18 0° 56° (ENE) 2,371 1.9 -16.6°
